Flag for Germany Weather past 2 weeks in Norderstedt, Schleswig-Holstein, Germany

Now
64 °F

Partly cloudy.


Feels Like: 64 °F
Forecast: 61 / 80 °F
Wind: 7 mph from Northeast

Location: Hamburg-Fuhlsbuettel

Current Time: Aug 30, 2015 at 10:17:45 PM

Latest Report: Aug 30, 2015 at 9:20 PM


Visibility: N/A

Pressure: 30.04 "Hg

Humidity: 94%

Dew point: 63 °F

Location of NorderstedtLocation

Historic Weather in Norderstedt — Graph

°F

Norderstedt temperature yesterday

Maximum temperature yesterday: 73 °F (at 4:20 PM)
Minimum temperature yesterday: 50 °F (at 3:50 AM)
Average temperature yesterday: 61 °F

Past Weeks' High & Low Weather Summary

 TemperatureHumidityPressure
High79 °F (Aug 22, 5:20 PM)100% (Aug 16, 12:50 AM)30.30 "Hg (Aug 16, 12:50 AM)
Low50 °F (Aug 29, 3:50 AM)30% (Aug 22, 12:50 PM)29.59 "Hg (Aug 24, 7:20 PM)
Average64 °F79%29.98 "Hg
* Reported Aug 15 9:20 PM — Aug 30 9:20 PM, Norderstedt, Weather by CustomWeather, © 2015

Note: Actual official high and low records may vary slightly from our data, if they occured in-between our weather recording intervals... More about our weather records

Advertising

Norderstedt weather history for previous 24 hours

 ConditionsComfort  
Time TempWeatherWind HumidityBarometerVisibility
9:20 PM
Sun, Aug 30
64 °FPartly cloudy.7 mph94%30.04 "HgN/A
8:50 PM66 °FBroken clouds.8 mph88%30.04 "HgN/A
8:20 PM66 °FBroken clouds.6 mph94%30.04 "HgN/A
7:50 PM68 °FScattered clouds.5 mph88%30.04 "HgN/A
7:20 PM70 °FSprinkles. Broken clouds.6 mph83%30.04 "HgN/A
6:50 PM70 °FSprinkles. Broken clouds.7 mph83%30.04 "HgN/A
6:20 PM72 °FScattered showers. Broken clouds.9 mph78%30.04 "HgN/A
5:50 PM72 °FPassing clouds.7 mph78%30.04 "HgN/A
5:20 PM72 °FScattered clouds.7 mph78%30.04 "HgN/A
4:50 PM73 °FPassing clouds.7 mph74%30.04 "HgN/A
4:20 PM73 °FPassing clouds.6 mph74%30.04 "HgN/A
3:50 PM73 °FPassing clouds.7 mph74%30.04 "HgN/A
3:20 PM72 °FPassing clouds.6 mph83%30.07 "HgN/A
2:50 PM70 °FScattered clouds.5 mph83%30.07 "HgN/A
2:20 PM68 °FPassing clouds.6 mph88%30.07 "HgN/A
1:50 PM66 °FPartly sunny.7 mph88%30.07 "HgN/A
1:20 PM64 °FBroken clouds.3 mph88%30.09 "Hg6 mi
12:50 PM64 °FSprinkles. Broken clouds.9 mph88%30.09 "Hg4 mi
12:20 PM66 °FThundershowers. Broken clouds.5 mph78%30.09 "HgN/A
11:50 AM66 °FBroken clouds.3 mph83%30.09 "HgN/A
11:20 AM64 °FSprinkles. Broken clouds.3 mph83%30.09 "HgN/A
10:50 AM63 °FPartly sunny.3 mph88%30.09 "HgN/A
10:20 AM61 °FBroken clouds.5 mph88%30.09 "HgN/A
9:50 AM59 °FBroken clouds.2 mph94%30.09 "HgN/A
9:20 AM59 °FPartly sunny.5 mph94%30.09 "HgN/A
8:50 AM59 °FScattered showers. Broken clouds.5 mph88%30.12 "HgN/A
8:20 AM59 °FScattered showers. Broken clouds.3 mph88%30.12 "HgN/A
7:50 AM59 °FSunny.2 mph88%30.12 "Hg10 mi
7:20 AM57 °FClear.7 mph94%30.09 "Hg10 mi
6:50 AM57 °FPartly cloudy.2 mph88%30.12 "HgN/A
6:20 AM55 °FClear.2 mph94%30.12 "Hg10 mi
5:50 AM55 °FFog.2 mph94%30.12 "HgN/A
5:20 AM57 °FFog.2 mph88%30.12 "HgN/A
4:50 AM55 °FFog.5 mph94%30.09 "HgN/A
4:20 AM55 °FFog.3 mph94%30.12 "HgN/A
3:50 AM57 °FFog.2 mph88%30.12 "HgN/A
3:20 AM55 °FFog.2 mph94%30.12 "HgN/A
2:50 AM55 °FFog.2 mph94%30.12 "HgN/A
2:20 AM55 °FFog.3 mph94%30.12 "HgN/A
1:50 AM57 °FFog.2 mph88%30.15 "HgN/A
1:20 AM57 °FFog.3 mph88%30.15 "HgN/A
12:50 AM57 °FPassing clouds.1 mph94%30.15 "HgN/A
12:20 AM57 °FPassing clouds.1 mph94%30.15 "HgN/A
11:50 PM
Sat, Aug 29
57 °FClear.1 mph94%30.15 "Hg10 mi
11:20 PM59 °FClear.1 mph88%30.15 "Hg10 mi
10:50 PM59 °FClear.2 mph82%30.15 "Hg10 mi
10:20 PM59 °FClear.No wind88%30.15 "Hg10 mi
Weather by CustomWeather, © 2015

See weather overviewHow to use our weather pages